Find Qianfan Jigui 06-18

NORAD ID: 62802 Int'l Des: 2025-016 Owner: YUANX Country: CN Constellation: spacesail operational
LEOCIRCULARPOLAR

現在のビュー

3D地球を読み込み中...

Qianfan Jigui 06-18について

説明を読み込み中...

次回通過

Passes for default location (London). Set your location on the main map for personalized predictions.

高度履歴

Loading altitude history...

軌道要素

1 62802U 25016T 26146.29527661 .00000098 00000-0 13293-3 0 9997
2 62802 88.9715 86.0017 0016778 237.9896 121.9625 13.51012263 69446
Epoch: May 26, 2026 • Age: 9 hours

現在のステータス

高度 1079.9 km
速度 7.31 km/s
衛星直下点 14.04°N, 38.67°W
打ち上げ日 Jan 23, 2025
運用期間 1.3 years
タイプ internet

技術仕様

分類 Payload
質量 267.00 kg
乾燥質量 267.00 kg
総質量 267.00 kg
長さ 0.30 m
直径 3.00 m
スパン 10.00 m
形状 Box+pan
製造者 SECM
バスタイプ Qianfan
フェーズステータス In Orbit
所有者/国 YUANX/CN

Most Searched